| time (UTC) | temp F | wind direction | speed MPH | gust MPH | rain 1hr in | rain 24hr in | rain mn in | humidity % | barometer mb |
| 20260506154545 | 64 | 156 | 2.0 | 6.0 | 0.00 | 0.20 | 0.15 | 61 | 1006.0 |
| 20260506153542 | 66 | 203 | 3.0 | 7.0 | 0.00 | 0.20 | 0.15 | 57 | 1006.0 |
| 20260506152539 | 68 | 170 | 4.0 | 9.0 | 0.00 | 0.20 | 0.15 | 54 | 1006.0 |
| 20260506151536 | 68 | 185 | 4.0 | 8.0 | 0.00 | 0.20 | 0.15 | 54 | 1006.0 |
| 20260506150528 | 68 | 159 | 3.0 | 9.0 | 0.00 | 0.20 | 0.15 | 53 | 1006.1 |
| 20260506145525 | 69 | 173 | 3.0 | 7.0 | 0.00 | 0.20 | 0.15 | 50 | 1006.0 |
| 20260506144537 | 67 | 190 | 3.0 | 6.0 | 0.00 | 0.20 | 0.15 | 57 | 1006.1 |
| 20260506143615 | 67 | 168 | 1.0 | 2.0 | 0.00 | 0.20 | 0.15 | 57 | 1006.2 |
| 20260506142612 | 68 | 189 | 2.0 | 4.0 | 0.00 | 0.20 | 0.15 | 53 | 1006.0 |
| 20260506141554 | 68 | 192 | 3.0 | 8.0 | 0.00 | 0.20 | 0.15 | 51 | 1006.0 |
| 20260506140611 | 67 | 180 | 4.0 | 7.0 | 0.00 | 0.20 | 0.15 | 53 | 1006.0 |
| 20260506135548 | 67 | 149 | 3.0 | 7.0 | 0.00 | 0.20 | 0.15 | 53 | 1006.2 |
| 20260506134539 | 66 | 158 | 1.0 | 4.0 | 0.00 | 0.20 | 0.15 | 52 | 1006.0 |
| 20260506133558 | 68 | 147 | 2.0 | 4.0 | 0.00 | 0.20 | 0.15 | 48 | 1006.2 |
| 20260506132528 | 68 | 180 | 3.0 | 4.0 | 0.00 | 0.20 | 0.15 | 50 | 1006.3 |
| 20260506131525 | 70 | 199 | 3.0 | 6.0 | 0.00 | 0.20 | 0.15 | 47 | 1006.3 |
| 20260506130517 | 71 | 214 | 1.0 | 4.0 | 0.00 | 0.20 | 0.15 | 45 | 1006.4 |
| 20260506125614 | 71 | 193 | 0.0 | 2.0 | 0.00 | 0.20 | 0.15 | 52 | 1006.5 |
| 20260506124612 | 69 | 164 | 2.0 | 6.0 | 0.00 | 0.20 | 0.15 | 53 | 1006.5 |
| 20260506123553 | 67 | 142 | 1.0 | 7.0 | 0.00 | 0.20 | 0.15 | 53 | 1006.5 |
| 20260506122550 | 64 | 136 | 1.0 | 4.0 | 0.00 | 0.20 | 0.15 | 56 | 1006.5 |
| 20260506121548 | 66 | 160 | 2.0 | 6.0 | 0.00 | 0.20 | 0.15 | 57 | 1006.7 |
| 20260506120539 | 66 | 45 | 3.0 | 4.0 | 0.00 | 0.20 | 0.15 | 57 | 1006.7 |
| 20260506115537 | 67 | 137 | 3.0 | 4.0 | 0.00 | 0.20 | 0.15 | 60 | 1006.8 |
| 20260506114528 | 65 | 145 | 3.0 | 6.0 | 0.00 | 0.20 | 0.15 | 60 | 1007.0 |
| 20260506113526 | 65 | 186 | 3.0 | 7.0 | 0.00 | 0.20 | 0.15 | 66 | 1007.1 |
| 20260506112518 | 64 | 135 | 3.0 | 4.0 | 0.00 | 0.20 | 0.15 | 66 | 1007.1 |
| 20260506111635 | 64 | 174 | 3.0 | 7.0 | 0.01 | 0.20 | 0.15 | 68 | 1007.4 |
| 20260506110612 | 63 | 141 | 2.0 | 7.0 | 0.01 | 0.20 | 0.15 | 72 | 1007.5 |
| 20260506105553 | 60 | 168 | 2.0 | 6.0 | 0.01 | 0.20 | 0.15 | 79 | 1007.5 |
| 20260506104550 | 57 | 184 | 1.0 | 4.0 | 0.01 | 0.20 | 0.15 | 85 | 1007.5 |
| 20260506103608 | 56 | 195 | 2.0 | 7.0 | 0.01 | 0.20 | 0.15 | 88 | 1007.6 |
| 20260506102539 | 58 | 0.0 | 0.0 | 0.01 | 0.20 | 0.15 | 77 | 1007.6 | |
| 20260506101536 | 59 | 307 | 4.0 | 9.0 | 0.00 | 0.19 | 0.14 | 69 | 1007.7 |
| 20260506100528 | 66 | 330 | 3.0 | 7.0 | 0.00 | 0.19 | 0.14 | 61 | 1007.3 |
| 20260506095526 | 66 | 197 | 1.0 | 4.0 | 0.00 | 0.19 | 0.14 | 61 | 1007.4 |
| 20260506094517 | 64 | 288 | 1.0 | 6.0 | 0.00 | 0.19 | 0.14 | 64 | 1007.4 |
| 20260506093614 | 63 | 335 | 2.0 | 4.0 | 0.00 | 0.19 | 0.14 | 64 | 1007.4 |
| 20260506092611 | 64 | 49 | 1.0 | 2.0 | 0.00 | 0.19 | 0.14 | 64 | 1007.4 |
| 20260506091554 | 62 | 344 | 2.0 | 4.0 | 0.00 | 0.19 | 0.14 | 71 | 1007.3 |
| 20260506090610 | 63 | 295 | 1.0 | 2.0 | 0.00 | 0.19 | 0.14 | 73 | 1007.3 |
| 20260506085548 | 61 | 351 | 1.0 | 4.0 | 0.00 | 0.19 | 0.14 | 72 | 1007.2 |
| 20260506084559 | 62 | 172 | 1.0 | 2.0 | 0.00 | 0.19 | 0.14 | 73 | 1007.3 |
| 20260506083536 | 61 | 0 | 0.0 | 2.0 | 0.00 | 0.19 | 0.14 | 73 | 1007.2 |
| 20260506082529 | 61 | 163 | 1.0 | 4.0 | 0.00 | 0.19 | 0.14 | 76 | 1007.1 |
| 20260506081547 | 60 | 158 | 1.0 | 2.0 | 0.00 | 0.19 | 0.14 | 79 | 1007.1 |
| 20260506080543 | 59 | 203 | 0.0 | 2.0 | 0.00 | 0.19 | 0.14 | 83 | 1007.1 |
| 20260506072550 | 53 | 189 | 1.0 | 2.0 | 0.00 | 0.19 | 0.14 | 99 | 1007.0 |
| 20260506071547 | 53 | 191 | 0.0 | 2.0 | 0.00 | 0.19 | 0.14 | 99 | 1007.0 |
| 20260506070539 | 52 | 161 | 1.0 | 2.0 | 0.00 | 0.19 | 0.14 | 99 | 1007.0 |
| 20260506061614 | 50 | 0.0 | 2.0 | 0.00 | 0.19 | 0.14 | 99 | 1006.4 | |
| 20260506060633 | 49 | 203 | 1.0 | 2.0 | 0.00 | 0.19 | 0.14 | 99 | 1006.2 |
| 20260506050527 | 50 | 158 | 0.0 | 2.0 | 0.00 | 0.27 | 0.14 | 99 | 1005.7 |
| 20260506044517 | 49 | 68 | 0.0 | 2.0 | 0.00 | 0.32 | 0.14 | 99 | 1005.4 |
| 20260506043614 | 49 | 68 | 0.0 | 2.0 | 0.00 | 0.35 | 0.14 | 99 | 1005.4 |
| 20260506042611 | 49 | 0.0 | 0.0 | 0.00 | 0.38 | 0.14 | 99 | 1005.4 | |
| 20260506041553 | 49 | 0 | 0.0 | 2.0 | 0.00 | 0.39 | 0.14 | 99 | 1005.3 |
| 20260506040550 | 50 | 14 | 1.0 | 2.0 | 0.00 | 0.39 | 0.14 | 99 | 1005.2 |
| 20260506035550 | 50 | 23 | 0.0 | 2.0 | 0.00 | 0.40 | 0.14 | 99 | 1005.2 |
| 20260506034539 | 50 | 23 | 0.0 | 2.0 | 0.00 | 0.41 | 0.14 | 99 | 1005.5 |
| 20260506033536 | 50 | 0.0 | 0.0 | 0.00 | 0.44 | 0.14 | 98 | 1005.3 | |
| 20260506032548 | 51 | 20 | 1.0 | 2.0 | 0.00 | 0.50 | 0.14 | 98 | 1005.3 |
| 20260506031525 | 51 | 0 | 1.0 | 2.0 | 0.00 | 0.51 | 0.14 | 98 | 1005.4 |
| 20260506030517 | 51 | 0.0 | 0.0 | 0.00 | 0.51 | 0.14 | 98 | 1005.5 | |
| 20260506025614 | 51 | 23 | 1.0 | 4.0 | 0.00 | 0.53 | 0.14 | 98 | 1005.4 |
| 20260506024611 | 51 | 7 | 1.0 | 2.0 | 0.00 | 0.54 | 0.14 | 98 | 1005.5 |
| 20260506023613 | 51 | 338 | 0.0 | 2.0 | 0.00 | 0.58 | 0.14 | 98 | 1005.6 |
| 20260506022550 | 51 | 0.0 | 2.0 | 0.00 | 0.59 | 0.14 | 98 | 1005.6 | |
| 20260506021607 | 51 | 225 | 0.0 | 2.0 | 0.00 | 0.64 | 0.14 | 98 | 1005.7 |
| 20260506020539 | 51 | 0.0 | 2.0 | 0.00 | 0.66 | 0.14 | 98 | 1005.6 | |
| 20260506015556 | 51 | 319 | 1.0 | 2.0 | 0.00 | 0.71 | 0.14 | 98 | 1005.8 |
| 20260506014528 | 51 | 0.0 | 2.0 | 0.00 | 0.71 | 0.14 | 98 | 1005.6 | |
| 20260506013525 | 51 | 0.0 | 0.0 | 0.01 | 0.72 | 0.14 | 98 | 1005.5 | |
| 20260506012516 | 51 | 0.0 | 0.0 | 0.01 | 0.73 | 0.14 | 98 | 1005.4 | |
| 20260506011614 | 51 | 23 | 0.0 | 2.0 | 0.04 | 0.74 | 0.14 | 98 | 1005.3 |
| 20260506010611 | 51 | 7 | 0.0 | 2.0 | 0.05 | 0.77 | 0.14 | 98 | 1005.5 |
| 20260506005553 | 51 | 23 | 0.0 | 2.0 | 0.06 | 0.78 | 0.14 | 98 | 1005.6 |
| 20260506004610 | 51 | 23 | 1.0 | 2.0 | 0.06 | 0.78 | 0.14 | 98 | 1005.8 |
| 20260506003547 | 51 | 17 | 1.0 | 2.0 | 0.06 | 0.78 | 0.13 | 98 | 1005.9 |
| 20260506002539 | 52 | 0 | 1.0 | 2.0 | 0.08 | 0.80 | 0.13 | 98 | 1006.1 |
| 20260506001538 | 52 | 8 | 1.0 | 2.0 | 0.08 | 0.79 | 0.11 | 98 | 1006.3 |
| 20260506000528 | 52 | 23 | 1.0 | 2.0 | 0.07 | 0.79 | 0.09 | 98 | 1006.6 |
| 20260505235525 | 53 | 23 | 0.0 | 2.0 | 0.07 | 0.78 | 0.08 | 98 | 1006.5 |
| 20260505234517 | 53 | 23 | 0.0 | 2.0 | 0.07 | 0.81 | 0.08 | 97 | 1006.7 |
| 20260505233614 | 53 | 0.0 | 2.0 | 0.06 | 0.84 | 0.07 | 97 | 1006.8 | |
| 20260505232632 | 53 | 0.0 | 0.0 | 0.05 | 0.87 | 0.05 | 97 | 1006.9 | |
| 20260505231553 | 53 | 0.0 | 2.0 | 0.02 | 0.92 | 0.02 | 97 | 1007.1 | |
| 20260505230550 | 53 | 0.0 | 0.0 | 0.02 | 0.94 | 0.02 | 97 | 1007.0 | |
| 20260505225547 | 53 | 0.0 | 0.0 | 0.01 | 0.94 | 0.01 | 97 | 1007.0 | |
| 20260505224539 | 53 | 0.0 | 2.0 | 0.02 | 0.96 | 0.01 | 97 | 1006.9 | |
| 20260505223536 | 53 | 352 | 1.0 | 2.0 | 0.02 | 1.03 | 0.01 | 97 | 1007.1 |
| 20260505222528 | 53 | 7 | 1.0 | 4.0 | 0.01 | 1.04 | 0.00 | 97 | 1007.0 |
| 20260505221525 | 53 | 0.0 | 2.0 | 0.01 | 1.06 | 0.00 | 97 | 1007.2 | |
| 20260505220517 | 53 | 350 | 1.0 | 2.0 | 0.01 | 1.09 | 0.00 | 96 | 1007.2 |
| 20260505215614 | 53 | 23 | 1.0 | 4.0 | 0.01 | 1.10 | 1.10 | 96 | 1007.3 |
| 20260505214623 | 53 | 14 | 1.0 | 2.0 | 0.00 | 1.13 | 1.09 | 96 | 1007.4 |
| 20260505213554 | 53 | 23 | 1.0 | 2.0 | 0.01 | 1.16 | 1.09 | 96 | 1007.5 |
| 20260505212551 | 53 | 23 | 1.0 | 4.0 | 0.02 | 1.19 | 1.09 | 96 | 1007.6 |
| 20260505211548 | 53 | 20 | 2.0 | 4.0 | 0.04 | 1.23 | 1.09 | 95 | 1007.7 |
| 20260505210539 | 54 | 28 | 2.0 | 4.0 | 0.04 | 1.24 | 1.09 | 94 | 1007.9 |
| 20260505205557 | 54 | 23 | 1.0 | 2.0 | 0.04 | 1.25 | 1.09 | 94 | 1007.9 |
| 20260505204528 | 54 | 20 | 1.0 | 2.0 | 0.04 | 1.26 | 1.09 | 93 | 1007.9 |
| 20260505203526 | 55 | 23 | 1.0 | 2.0 | 0.02 | 1.26 | 1.07 | 92 | 1007.8 |
| 20260505202518 | 56 | 232 | 0.0 | 2.0 | 0.01 | 1.25 | 1.06 | 90 | 1007.7 |
| 20260505201614 | 57 | 0.0 | 0.0 | 0.00 | 1.29 | 1.05 | 88 | 1007.9 | |
| 20260505200613 | 57 | 180 | 1.0 | 2.0 | 0.00 | 1.36 | 1.05 | 86 | 1007.6 |
| 20260505195733 | 57 | 169 | 0.0 | 2.0 | 0.00 | 1.43 | 1.05 | 85 | 1007.4 |
| 20260505194550 | 57 | 111 | 1.0 | 4.0 | 0.00 | 1.50 | 1.05 | 85 | 1007.4 |
| 20260505193541 | 58 | 150 | 2.0 | 4.0 | 0.00 | 1.55 | 1.05 | 85 | 1007.2 |
| 20260505192558 | 58 | 167 | 2.0 | 4.0 | 0.00 | 1.56 | 1.05 | 84 | 1007.1 |
| 20260505191535 | 58 | 168 | 2.0 | 4.0 | 0.00 | 1.57 | 1.05 | 83 | 1006.9 |
| 20260505190527 | 59 | 169 | 2.0 | 4.0 | 0.00 | 1.59 | 1.05 | 83 | 1007.0 |
| 20260505185524 | 59 | 130 | 2.0 | 4.0 | 0.00 | 1.63 | 1.05 | 82 | 1006.9 |
| 20260505184516 | 60 | 129 | 2.0 | 6.0 | 0.00 | 1.65 | 1.05 | 82 | 1006.8 |
| 20260505183613 | 60 | 143 | 1.0 | 4.0 | 0.00 | 1.69 | 1.05 | 81 | 1006.7 |
| 20260505182559 | 60 | 187 | 0.0 | 4.0 | 0.00 | 1.70 | 1.05 | 81 | 1006.5 |
| 20260505181611 | 60 | 196 | 1.0 | 4.0 | 0.00 | 1.72 | 1.05 | 80 | 1006.5 |
| 20260505180548 | 60 | 203 | 2.0 | 4.0 | 0.00 | 1.76 | 1.05 | 79 | 1006.2 |
| 20260505175559 | 61 | 177 | 3.0 | 7.0 | 0.00 | 1.78 | 1.05 | 78 | 1006.2 |
| 20260505174537 | 61 | 180 | 2.0 | 4.0 | 0.00 | 1.82 | 1.05 | 78 | 1006.1 |
| 20260505173529 | 62 | 128 | 3.0 | 6.0 | 0.00 | 1.85 | 1.05 | 75 | 1006.0 |
| 20260505172526 | 62 | 176 | 3.0 | 8.0 | 0.00 | 1.89 | 1.05 | 74 | 1006.0 |
| 20260505171523 | 62 | 197 | 5.0 | 11.0 | 0.00 | 1.95 | 1.05 | 73 | 1005.9 |
| 20260505170615 | 63 | 146 | 4.0 | 9.0 | 0.00 | 1.96 | 1.05 | 74 | 1006.0 |
| 20260505165612 | 63 | 152 | 3.0 | 13.0 | 0.00 | 2.02 | 1.05 | 75 | 1006.0 |
| 20260505164553 | 63 | 185 | 3.0 | 8.0 | 0.00 | 2.07 | 1.05 | 76 | 1006.0 |
| 20260505163552 | 63 | 190 | 5.0 | 11.0 | 0.00 | 2.15 | 1.05 | 78 | 1005.9 |
| 20260505162547 | 64 | 203 | 4.0 | 8.0 | 0.00 | 2.15 | 1.05 | 80 | 1005.6 |
| 20260505161539 | 64 | 172 | 3.0 | 8.0 | 0.00 | 2.19 | 1.05 | 79 | 1005.7 |
| 20260505160536 | 64 | 150 | 3.0 | 8.0 | 0.00 | 2.26 | 1.05 | 76 | 1005.4 |